contact:dominique.lefevre@mio.osupytheas.fr, maurice.libes@osupytheas.fr, didier.mallarino@osupytheas.fr
Project:EMSO http://www.emso-fr.org/EMSO-France
Depth: 2436.0 m
Title:EMSO Ligure Ouest : Data MII capteur MICROCAT
DateTime_Computer,Latitude,Longitude,Temperature,Conductivity,Pressure,DateTime_Instrument
DateTime_Computer,Latitude,Longitude,degC,S m-1,dbar,DateTime_Instrument
2020-05-24T00:01:22Z,42.805,6.029,13.2971,4.59988,2470.1,2020-5-24T02:02:04Z
2020-05-24T00:04:25Z,42.805,6.029,13.2971,4.59976,2470.077,2020-5-24T02:05:08Z
2020-05-24T00:07:28Z,42.805,6.029,13.2971,4.59979,2470.063,2020-5-24T02:08:11Z
2020-05-24T00:10:31Z,42.805,6.029,13.2980,4.60006,2470.1,2020-5-24T02:11:14Z
2020-05-24T00:13:35Z,42.805,6.029,13.2978,4.59996,2470.087,2020-5-24T02:14:17Z
2020-05-24T00:16:38Z,42.805,6.029,13.2993,4.60001,2470.087,2020-5-24T02:17:20Z
2020-05-24T00:19:41Z,42.805,6.029,13.3011,4.60021,2470.087,2020-5-24T02:20:24Z
2020-05-24T00:22:44Z,42.805,6.029,13.3011,4.59994,2470.11,2020-5-24T02:23:27Z
2020-05-24T00:25:48Z,42.805,6.029,13.3009,4.60053,2470.077,2020-5-24T02:26:30Z
2020-05-24T00:28:51Z,42.805,6.029,13.2986,4.60011,2470.087,2020-5-24T02:29:34Z
2020-05-24T00:31:54Z,42.805,6.029,13.2976,4.59999,2470.077,2020-5-24T02:32:37Z
2020-05-24T00:34:57Z,42.805,6.029,13.2974,4.59998,2470.1,2020-5-24T02:35:40Z
2020-05-24T00:38:01Z,42.805,6.029,13.3010,4.60019,2470.063,2020-5-24T02:38:43Z
2020-05-24T00:41:04Z,42.805,6.029,13.3006,4.59998,2470.077,2020-5-24T02:41:47Z
2020-05-24T00:44:07Z,42.805,6.029,13.3018,4.59992,2470.124,2020-5-24T02:44:50Z
2020-05-24T00:47:11Z,42.805,6.029,13.3009,4.59993,2470.077,2020-5-24T02:47:53Z
2020-05-24T00:50:14Z,42.805,6.029,13.2988,4.60014,2470.063,2020-5-24T02:50:56Z
2020-05-24T00:53:17Z,42.805,6.029,13.3018,4.60003,2470.087,2020-5-24T02:54:00Z
2020-05-24T00:56:20Z,42.805,6.029,13.3006,4.60004,2470.04,2020-5-24T02:57:03Z
2020-05-24T00:59:23Z,42.805,6.029,13.2994,4.59998,2470.04,2020-5-24T03:00:06Z
2020-05-24T01:02:27Z,42.805,6.029,13.2983,4.59990,2470.04,2020-5-24T03:03:09Z
2020-05-24T01:05:30Z,42.805,6.029,13.2970,4.60010,2470.053,2020-5-24T03:06:13Z
2020-05-24T01:08:33Z,42.805,6.029,13.2994,4.60004,2470.063,2020-5-24T03:09:16Z
2020-05-24T01:11:36Z,42.805,6.029,13.2997,4.60003,2470.053,2020-5-24T03:12:19Z
2020-05-24T01:14:40Z,42.805,6.029,13.3004,4.60019,2470.063,2020-5-24T03:15:22Z
2020-05-24T01:17:43Z,42.805,6.029,13.3025,4.60007,2470.04,2020-5-24T03:18:25Z
2020-05-24T01:20:46Z,42.805,6.029,13.3011,4.60016,2470.04,2020-5-24T03:21:29Z
2020-05-24T01:23:49Z,42.805,6.029,13.3012,4.60026,2470.063,2020-5-24T03:24:32Z
2020-05-24T01:26:53Z,42.805,6.029,13.3008,4.60020,2470.077,2020-5-24T03:27:35Z
2020-05-24T01:29:56Z,42.805,6.029,13.3014,4.60014,2470.049,2020-5-24T03:30:39Z
2020-05-24T01:33:00Z,42.805,6.029,13.3015,4.60019,2470.04,2020-5-24T03:33:42Z
2020-05-24T01:36:03Z,42.805,6.029,13.3026,4.59994,2470.053,2020-5-24T03:36:45Z
2020-05-24T01:39:06Z,42.805,6.029,13.3015,4.60001,2470.053,2020-5-24T03:39:49Z
2020-05-24T01:42:09Z,42.805,6.029,13.3040,4.60024,2470.017,2020-5-24T03:42:52Z
2020-05-24T01:45:12Z,42.805,6.029,13.2973,4.59985,2470.03,2020-5-24T03:45:55Z
2020-05-24T01:48:16Z,42.805,6.029,13.2971,4.59980,2470.053,2020-5-24T03:48:58Z
2020-05-24T01:51:19Z,42.805,6.029,13.2968,4.59979,2470.04,2020-5-24T03:52:02Z
2020-05-24T01:54:22Z,42.805,6.029,13.2968,4.59973,2470.04,2020-5-24T03:55:05Z
2020-05-24T01:57:25Z,42.805,6.029,13.2971,4.59978,2470.03,2020-5-24T03:58:08Z
2020-05-24T02:00:29Z,42.805,6.029,13.2972,4.59978,2470.017,2020-5-24T04:01:11Z
2020-05-24T02:03:32Z,42.805,6.029,13.2985,4.59977,2470.053,2020-5-24T04:04:15Z
2020-05-24T02:06:35Z,42.805,6.029,13.2974,4.59979,2470.053,2020-5-24T04:07:18Z
2020-05-24T02:09:39Z,42.805,6.029,13.3006,4.59986,2470.053,2020-5-24T04:10:21Z
2020-05-24T02:12:42Z,42.805,6.029,13.2981,4.59981,2470.04,2020-5-24T04:13:25Z
2020-05-24T02:15:45Z,42.805,6.029,13.3041,4.59981,2470.007,2020-5-24T04:16:28Z
2020-05-24T02:18:48Z,42.805,6.029,13.2989,4.59982,2470.053,2020-5-24T04:19:31Z
2020-05-24T02:21:52Z,42.805,6.029,13.2982,4.59976,2470.053,2020-5-24T04:22:34Z
2020-05-24T02:24:55Z,42.805,6.029,13.2988,4.60022,2470.053,2020-5-24T04:25:37Z
2020-05-24T02:27:58Z,42.805,6.029,13.3009,4.60051,2470.04,2020-5-24T04:28:41Z
2020-05-24T02:31:01Z,42.805,6.029,13.3005,4.59996,2470.03,2020-5-24T04:31:44Z
2020-05-24T02:34:05Z,42.805,6.029,13.2994,4.60014,2469.993,2020-5-24T04:34:47Z
2020-05-24T02:37:08Z,42.805,6.029,13.2996,4.60016,2470.017,2020-5-24T04:37:51Z
2020-05-24T02:40:11Z,42.805,6.029,13.2993,4.59992,2470.017,2020-5-24T04:40:54Z
2020-05-24T02:43:15Z,42.805,6.029,13.2988,4.60018,2470.03,2020-5-24T04:43:57Z
2020-05-24T02:46:18Z,42.805,6.029,13.2986,4.59986,2470.017,2020-5-24T04:47:00Z
2020-05-24T02:49:21Z,42.805,6.029,13.2996,4.60004,2470.04,2020-5-24T04:50:04Z
2020-05-24T02:52:24Z,42.805,6.029,13.3000,4.59997,2470.053,2020-5-24T04:53:07Z
2020-05-24T02:55:28Z,42.805,6.029,13.3002,4.60021,2470.03,2020-5-24T04:56:10Z
2020-05-24T02:58:31Z,42.805,6.029,13.2994,4.60044,2470.017,2020-5-24T04:59:13Z
2020-05-24T03:01:34Z,42.805,6.029,13.2984,4.60045,2470.04,2020-5-24T05:02:17Z
2020-05-24T03:04:37Z,42.805,6.029,13.3002,4.60017,2470.03,2020-5-24T05:05:20Z
2020-05-24T03:07:40Z,42.805,6.029,13.3006,4.60049,2470.03,2020-5-24T05:08:23Z
2020-05-24T03:10:44Z,42.805,6.029,13.3000,4.60063,2470.03,2020-5-24T05:11:26Z
2020-05-24T03:13:47Z,42.805,6.029,13.2991,4.60033,2470.017,2020-5-24T05:14:30Z
2020-05-24T03:16:50Z,42.805,6.029,13.2997,4.60028,2470.03,2020-5-24T05:17:33Z
2020-05-24T03:19:54Z,42.805,6.029,13.3000,4.60034,2470.03,2020-5-24T05:20:36Z
2020-05-24T03:22:57Z,42.805,6.029,13.2992,4.60024,2470.017,2020-5-24T05:23:39Z
2020-05-24T03:26:00Z,42.805,6.029,13.2991,4.60049,2470.007,2020-5-24T05:26:43Z
2020-05-24T03:29:03Z,42.805,6.029,13.2985,4.60036,2470.03,2020-5-24T05:29:46Z
2020-05-24T03:32:06Z,42.805,6.029,13.2982,4.60067,2470.007,2020-5-24T05:32:49Z
2020-05-24T03:35:10Z,42.805,6.029,13.2991,4.60012,2470.017,2020-5-24T05:35:52Z
2020-05-24T03:38:13Z,42.805,6.029,13.2994,4.60048,2470.03,2020-5-24T05:38:56Z
2020-05-24T03:41:16Z,42.805,6.029,13.2990,4.60051,2470.007,2020-5-24T05:41:59Z
2020-05-24T03:44:19Z,42.805,6.029,13.2991,4.60064,2470.017,2020-5-24T05:45:02Z
2020-05-24T03:47:23Z,42.805,6.029,13.2988,4.60036,2470.017,2020-5-24T05:48:05Z
2020-05-24T03:50:26Z,42.805,6.029,13.3001,4.60064,2470.017,2020-5-24T05:51:09Z
2020-05-24T03:53:29Z,42.805,6.029,13.2990,4.60023,2470.007,2020-5-24T05:54:12Z
2020-05-24T03:56:33Z,42.805,6.029,13.2990,4.60039,2470.017,2020-5-24T05:57:15Z
2020-05-24T03:59:36Z,42.805,6.029,13.2997,4.60031,2470.017,2020-5-24T06:00:19Z
2020-05-24T04:02:39Z,42.805,6.029,13.2995,4.60080,2470.007,2020-5-24T06:03:22Z
2020-05-24T04:05:42Z,42.805,6.029,13.2995,4.60024,2470.053,2020-5-24T06:06:25Z
2020-05-24T04:08:46Z,42.805,6.029,13.3002,4.60051,2470.03,2020-5-24T06:09:28Z
2020-05-24T04:11:49Z,42.805,6.029,13.3017,4.60019,2470.04,2020-5-24T06:12:31Z
2020-05-24T04:14:52Z,42.805,6.029,13.2991,4.60032,2470.007,2020-5-24T06:15:35Z
2020-05-24T04:17:55Z,42.805,6.029,13.2994,4.60067,2470.017,2020-5-24T06:18:38Z
2020-05-24T04:20:59Z,42.805,6.029,13.2993,4.60024,2470.04,2020-5-24T06:21:41Z
2020-05-24T04:24:02Z,42.805,6.029,13.2995,4.60054,2470.017,2020-5-24T06:24:45Z
2020-05-24T04:27:05Z,42.805,6.029,13.2999,4.60022,2470.053,2020-5-24T06:27:48Z
2020-05-24T04:30:09Z,42.805,6.029,13.2996,4.60043,2470.04,2020-5-24T06:30:51Z
2020-05-24T04:33:12Z,42.805,6.029,13.2995,4.60039,2470.04,2020-5-24T06:33:54Z
2020-05-24T04:36:15Z,42.805,6.029,13.2982,4.60027,2470.087,2020-5-24T06:36:58Z
2020-05-24T04:39:18Z,42.805,6.029,13.2996,4.60041,2470.04,2020-5-24T06:40:01Z
2020-05-24T04:42:21Z,42.805,6.029,13.2989,4.59995,2470.053,2020-5-24T06:43:04Z
2020-05-24T04:45:25Z,42.805,6.029,13.2991,4.60044,2470.063,2020-5-24T06:46:07Z
2020-05-24T04:48:28Z,42.805,6.029,13.2991,4.60033,2470.1,2020-5-24T06:49:11Z
2020-05-24T04:51:31Z,42.805,6.029,13.3003,4.60003,2470.03,2020-5-24T06:52:14Z
2020-05-24T04:54:35Z,42.805,6.029,13.2990,4.60036,2470.063,2020-5-24T06:55:17Z
2020-05-24T04:57:38Z,42.805,6.029,13.2991,4.60025,2470.04,2020-5-24T06:58:20Z
2020-05-24T05:00:41Z,42.805,6.029,13.2982,4.60011,2470.077,2020-5-24T07:01:24Z
2020-05-24T05:03:44Z,42.805,6.029,13.2976,4.60033,2470.053,2020-5-24T07:04:27Z
2020-05-24T05:06:48Z,42.805,6.029,13.2988,4.60044,2470.087,2020-5-24T07:07:31Z
2020-05-24T05:09:51Z,42.805,6.029,13.2988,4.60034,2470.063,2020-5-24T07:10:34Z
2020-05-24T05:12:55Z,42.805,6.029,13.2986,4.60029,2470.063,2020-5-24T07:13:37Z
2020-05-24T05:15:58Z,42.805,6.029,13.2988,4.60016,2470.1,2020-5-24T07:16:41Z
2020-05-24T05:19:01Z,42.805,6.029,13.2986,4.59999,2470.063,2020-5-24T07:19:44Z
2020-05-24T05:22:05Z,42.805,6.029,13.2985,4.60024,2470.063,2020-5-24T07:22:47Z
2020-05-24T05:25:08Z,42.805,6.029,13.2986,4.60019,2470.063,2020-5-24T07:25:51Z
2020-05-24T05:28:11Z,42.805,6.029,13.2983,4.60024,2470.087,2020-5-24T07:28:54Z
2020-05-24T05:31:14Z,42.805,6.029,13.2993,4.60044,2470.063,2020-5-24T07:31:57Z
2020-05-24T05:34:18Z,42.805,6.029,13.2992,4.60041,2470.053,2020-5-24T07:35:00Z
2020-05-24T05:37:21Z,42.805,6.029,13.2983,4.60047,2470.077,2020-5-24T07:38:04Z
2020-05-24T05:40:24Z,42.805,6.029,13.2988,4.60013,2470.091,2020-5-24T07:41:07Z
2020-05-24T05:43:27Z,42.805,6.029,13.2998,4.60012,2470.087,2020-5-24T07:44:10Z
2020-05-24T05:46:31Z,42.805,6.029,13.2997,4.60027,2470.087,2020-5-24T07:47:13Z
2020-05-24T05:49:34Z,42.805,6.029,13.2981,4.60014,2470.1,2020-5-24T07:50:16Z
2020-05-24T05:52:37Z,42.805,6.029,13.2990,4.60023,2470.087,2020-5-24T07:53:20Z
2020-05-24T05:55:40Z,42.805,6.029,13.2986,4.60024,2470.096,2020-5-24T07:56:23Z
2020-05-24T05:58:44Z,42.805,6.029,13.3001,4.60041,2470.063,2020-5-24T07:59:26Z
2020-05-24T06:01:47Z,42.805,6.029,13.3000,4.60044,2470.1,2020-5-24T08:02:30Z
2020-05-24T06:04:50Z,42.805,6.029,13.2991,4.60033,2470.073,2020-5-24T08:05:33Z
2020-05-24T06:07:53Z,42.805,6.029,13.2991,4.60077,2470.11,2020-5-24T08:08:36Z
2020-05-24T06:10:57Z,42.805,6.029,13.3004,4.60057,2470.147,2020-5-24T08:11:39Z
2020-05-24T06:14:00Z,42.805,6.029,13.2996,4.60035,2470.147,2020-5-24T08:14:42Z
2020-05-24T06:17:03Z,42.805,6.029,13.2990,4.60029,2470.133,2020-5-24T08:17:46Z
2020-05-24T06:20:06Z,42.805,6.029,13.2985,4.60025,2470.156,2020-5-24T08:20:49Z
2020-05-24T06:23:10Z,42.805,6.029,13.2989,4.60038,2470.087,2020-5-24T08:23:52Z
2020-05-24T06:26:13Z,42.805,6.029,13.2986,4.60033,2470.147,2020-5-24T08:26:55Z
2020-05-24T06:29:16Z,42.805,6.029,13.2998,4.60069,2470.156,2020-5-24T08:29:59Z
2020-05-24T06:32:20Z,42.805,6.029,13.2987,4.60049,2470.156,2020-5-24T08:33:02Z
2020-05-24T06:35:23Z,42.805,6.029,13.2985,4.60081,2470.147,2020-5-24T08:36:05Z
2020-05-24T06:38:26Z,42.805,6.029,13.3009,4.60062,2470.147,2020-5-24T08:39:09Z
2020-05-24T06:41:29Z,42.805,6.029,13.2998,4.60039,2470.147,2020-5-24T08:42:12Z
2020-05-24T06:44:33Z,42.805,6.029,13.2998,4.60048,2470.147,2020-5-24T08:45:15Z
2020-05-24T06:47:36Z,42.805,6.029,13.3025,4.60044,2470.11,2020-5-24T08:48:18Z
2020-05-24T06:50:39Z,42.805,6.029,13.2996,4.60067,2470.1,2020-5-24T08:51:22Z
2020-05-24T06:53:42Z,42.805,6.029,13.2984,4.60052,2470.133,2020-5-24T08:54:25Z
2020-05-24T06:56:46Z,42.805,6.029,13.2994,4.60059,2470.133,2020-5-24T08:57:28Z
2020-05-24T06:59:49Z,42.805,6.029,13.2996,4.60069,2470.133,2020-5-24T09:00:31Z
2020-05-24T07:02:52Z,42.805,6.029,13.2993,4.60030,2470.133,2020-5-24T09:03:35Z
2020-05-24T07:05:55Z,42.805,6.029,13.2996,4.60068,2470.171,2020-5-24T09:06:38Z
2020-05-24T07:08:59Z,42.805,6.029,13.3006,4.60050,2470.156,2020-5-24T09:09:41Z
2020-05-24T07:12:02Z,42.805,6.029,13.2995,4.60051,2470.171,2020-5-24T09:12:44Z
2020-05-24T07:15:05Z,42.805,6.029,13.2983,4.60052,2470.171,2020-5-24T09:15:48Z
2020-05-24T07:18:08Z,42.805,6.029,13.2996,4.60039,2470.147,2020-5-24T09:18:51Z
2020-05-24T07:21:12Z,42.805,6.029,13.2988,4.60062,2470.171,2020-5-24T09:21:54Z
2020-05-24T07:24:15Z,42.805,6.029,13.3000,4.60071,2470.147,2020-5-24T09:24:57Z
2020-05-24T07:27:18Z,42.805,6.029,13.2990,4.60064,2470.156,2020-5-24T09:28:01Z
2020-05-24T07:30:21Z,42.805,6.029,13.2993,4.60064,2470.171,2020-5-24T09:31:04Z
2020-05-24T07:33:24Z,42.805,6.029,13.2992,4.60075,2470.156,2020-5-24T09:34:07Z
2020-05-24T07:36:28Z,42.805,6.029,13.3011,4.60054,2470.133,2020-5-24T09:37:10Z
2020-05-24T07:39:31Z,42.805,6.029,13.2989,4.60026,2470.147,2020-5-24T09:40:14Z
2020-05-24T07:42:34Z,42.805,6.029,13.2996,4.60046,2470.18,2020-5-24T09:43:17Z
2020-05-24T07:45:37Z,42.805,6.029,13.2997,4.60059,2470.18,2020-5-24T09:46:20Z
2020-05-24T07:48:41Z,42.805,6.029,13.2988,4.60031,2470.194,2020-5-24T09:49:23Z
2020-05-24T07:51:44Z,42.805,6.029,13.2993,4.60051,2470.133,2020-5-24T09:52:26Z
2020-05-24T07:54:47Z,42.805,6.029,13.3007,4.60058,2470.133,2020-5-24T09:55:30Z
2020-05-24T07:57:50Z,42.805,6.029,13.2992,4.60027,2470.194,2020-5-24T09:58:33Z
2020-05-24T08:00:53Z,42.805,6.029,13.3006,4.60038,2470.133,2020-5-24T10:01:36Z
2020-05-24T08:03:57Z,42.805,6.029,13.2995,4.60051,2470.156,2020-5-24T10:04:39Z
2020-05-24T08:07:00Z,42.805,6.029,13.2997,4.60034,2470.156,2020-5-24T10:07:43Z
2020-05-24T08:10:03Z,42.805,6.029,13.3005,4.60039,2470.147,2020-5-24T10:10:46Z
2020-05-24T08:13:06Z,42.805,6.029,13.2993,4.60061,2470.147,2020-5-24T10:13:49Z
2020-05-24T08:16:10Z,42.805,6.029,13.2995,4.60056,2470.133,2020-5-24T10:16:52Z
2020-05-24T08:19:13Z,42.805,6.029,13.2991,4.60033,2470.147,2020-5-24T10:19:55Z
2020-05-24T08:22:16Z,42.805,6.029,13.3001,4.60033,2470.124,2020-5-24T10:22:59Z
2020-05-24T08:25:19Z,42.805,6.029,13.3001,4.60049,2470.147,2020-5-24T10:26:02Z
2020-05-24T08:28:22Z,42.805,6.029,13.2992,4.60067,2470.171,2020-5-24T10:29:05Z
2020-05-24T08:31:26Z,42.805,6.029,13.2986,4.60067,2470.156,2020-5-24T10:32:08Z
2020-05-24T08:34:29Z,42.805,6.029,13.2998,4.60036,2470.11,2020-5-24T10:35:12Z
2020-05-24T08:37:32Z,42.805,6.029,13.2991,4.60024,2470.11,2020-5-24T10:38:15Z
2020-05-24T08:40:35Z,42.805,6.029,13.3001,4.60029,2470.147,2020-5-24T10:41:18Z
2020-05-24T08:43:39Z,42.805,6.029,13.2994,4.60041,2470.124,2020-5-24T10:44:21Z
2020-05-24T08:46:42Z,42.805,6.029,13.3008,4.60040,2470.11,2020-5-24T10:47:24Z
2020-05-24T08:49:45Z,42.805,6.029,13.2994,4.60056,2470.156,2020-5-24T10:50:28Z
2020-05-24T08:52:48Z,42.805,6.029,13.3000,4.60062,2470.147,2020-5-24T10:53:31Z
2020-05-24T08:55:52Z,42.805,6.029,13.2997,4.60053,2470.133,2020-5-24T10:56:34Z
2020-05-24T08:58:55Z,42.805,6.029,13.2993,4.60081,2470.11,2020-5-24T10:59:38Z
2020-05-24T09:01:58Z,42.805,6.029,13.2990,4.60069,2470.133,2020-5-24T11:02:41Z
2020-05-24T09:05:01Z,42.805,6.029,13.3011,4.60046,2470.1,2020-5-24T11:05:44Z
2020-05-24T09:08:05Z,42.805,6.029,13.2988,4.60066,2470.063,2020-5-24T11:08:47Z
2020-05-24T09:11:08Z,42.805,6.029,13.2991,4.60067,2470.11,2020-5-24T11:11:50Z
2020-05-24T09:14:11Z,42.805,6.029,13.2995,4.60062,2470.087,2020-5-24T11:14:54Z
2020-05-24T09:17:14Z,42.805,6.029,13.2990,4.60043,2470.11,2020-5-24T11:17:57Z
2020-05-24T09:20:18Z,42.805,6.029,13.2993,4.60066,2470.124,2020-5-24T11:21:00Z
2020-05-24T09:23:21Z,42.805,6.029,13.2995,4.60079,2470.124,2020-5-24T11:24:03Z
2020-05-24T09:26:24Z,42.805,6.029,13.3008,4.60079,2470.1,2020-5-24T11:27:07Z
2020-05-24T09:29:27Z,42.805,6.029,13.3012,4.60010,2470.063,2020-5-24T11:30:10Z
2020-05-24T09:32:30Z,42.805,6.029,13.2990,4.60031,2470.049,2020-5-24T11:33:13Z
2020-05-24T09:35:34Z,42.805,6.029,13.2999,4.60007,2470.077,2020-5-24T11:36:17Z
2020-05-24T09:38:37Z,42.805,6.029,13.2982,4.60033,2470.087,2020-5-24T11:39:20Z
2020-05-24T09:41:41Z,42.805,6.029,13.2995,4.60049,2470.077,2020-5-24T11:42:23Z
2020-05-24T09:44:44Z,42.805,6.029,13.3021,4.60058,2470.063,2020-5-24T11:45:26Z
2020-05-24T09:47:47Z,42.805,6.029,13.3025,4.60041,2470.077,2020-5-24T11:48:30Z
2020-05-24T09:50:50Z,42.805,6.029,13.2997,4.60029,2470.1,2020-5-24T11:51:33Z
2020-05-24T09:53:53Z,42.805,6.029,13.3007,4.60031,2470.1,2020-5-24T11:54:36Z
2020-05-24T09:56:57Z,42.805,6.029,13.2998,4.60078,2470.087,2020-5-24T11:57:39Z
2020-05-24T10:00:00Z,42.805,6.029,13.3018,4.60045,2470.087,2020-5-24T12:00:43Z
2020-05-24T10:03:03Z,42.805,6.029,13.3018,4.60031,2470.077,2020-5-24T12:03:46Z
2020-05-24T10:06:06Z,42.805,6.029,13.3021,4.60053,2470.063,2020-5-24T12:06:49Z
2020-05-24T10:09:10Z,42.805,6.029,13.3036,4.60044,2470.04,2020-5-24T12:09:52Z
2020-05-24T10:12:13Z,42.805,6.029,13.3023,4.60057,2470.063,2020-5-24T12:12:56Z
2020-05-24T10:15:16Z,42.805,6.029,13.3038,4.60062,2470.063,2020-5-24T12:15:59Z
2020-05-24T10:18:19Z,42.805,6.029,13.3035,4.60047,2470.077,2020-5-24T12:19:02Z
2020-05-24T10:21:23Z,42.805,6.029,13.3026,4.60073,2470.077,2020-5-24T12:22:05Z
2020-05-24T10:24:26Z,42.805,6.029,13.3018,4.60042,2470.053,2020-5-24T12:25:09Z
2020-05-24T10:27:29Z,42.805,6.029,13.3048,4.60075,2470.063,2020-5-24T12:28:12Z
2020-05-24T10:30:33Z,42.805,6.029,13.3036,4.60028,2470.087,2020-5-24T12:31:15Z
2020-05-24T10:33:36Z,42.805,6.029,13.3014,4.60072,2470.053,2020-5-24T12:34:18Z
2020-05-24T10:36:39Z,42.805,6.029,13.3028,4.60054,2470.1,2020-5-24T12:37:22Z
2020-05-24T10:39:42Z,42.805,6.029,13.3041,4.60052,2470.017,2020-5-24T12:40:25Z
2020-05-24T10:42:46Z,42.805,6.029,13.3034,4.60058,2470.053,2020-5-24T12:43:28Z
2020-05-24T10:45:49Z,42.805,6.029,13.3009,4.60061,2470.063,2020-5-24T12:46:31Z
2020-05-24T10:48:52Z,42.805,6.029,13.3010,4.60057,2470.03,2020-5-24T12:49:35Z
2020-05-24T10:51:55Z,42.805,6.029,13.3027,4.60046,2470.053,2020-5-24T12:52:38Z
2020-05-24T10:54:59Z,42.805,6.029,13.3032,4.60077,2470.077,2020-5-24T12:55:41Z
2020-05-24T10:58:02Z,42.805,6.029,13.3067,4.60045,2470.017,2020-5-24T12:58:44Z
2020-05-24T11:01:05Z,42.805,6.029,13.3058,4.60082,2470.017,2020-5-24T13:01:48Z
2020-05-24T11:04:08Z,42.805,6.029,13.3006,4.60070,2470.077,2020-5-24T13:04:51Z
2020-05-24T11:07:12Z,42.805,6.029,13.3025,4.60056,2470.053,2020-5-24T13:07:54Z
2020-05-24T11:10:15Z,42.805,6.029,13.3029,4.60041,2470.04,2020-5-24T13:10:57Z
2020-05-24T11:13:18Z,42.805,6.029,13.3031,4.60049,2470.04,2020-5-24T13:14:01Z
2020-05-24T11:16:21Z,42.805,6.029,13.3042,4.60043,2470.04,2020-5-24T13:17:04Z
2020-05-24T11:19:25Z,42.805,6.029,13.3049,4.60055,2470.04,2020-5-24T13:20:07Z
2020-05-24T11:22:28Z,42.805,6.029,13.3038,4.60050,2470.007,2020-5-24T13:23:10Z
2020-05-24T11:25:31Z,42.805,6.029,13.3029,4.60056,2470.017,2020-5-24T13:26:14Z
2020-05-24T11:28:35Z,42.805,6.029,13.3004,4.60046,2470.017,2020-5-24T13:29:17Z
2020-05-24T11:31:38Z,42.805,6.029,13.3059,4.60048,2470.03,2020-5-24T13:32:20Z
2020-05-24T11:34:41Z,42.805,6.029,13.3011,4.60013,2470.017,2020-5-24T13:35:24Z
2020-05-24T11:37:44Z,42.805,6.029,13.3012,4.60031,2469.984,2020-5-24T13:38:27Z
2020-05-24T11:40:47Z,42.805,6.029,13.3041,4.60061,2470.03,2020-5-24T13:41:30Z
2020-05-24T11:43:51Z,42.805,6.029,13.3004,4.60069,2470.053,2020-5-24T13:44:33Z
2020-05-24T11:46:54Z,42.805,6.029,13.3003,4.60039,2470.04,2020-5-24T13:47:37Z
2020-05-24T11:49:57Z,42.805,6.029,13.3031,4.60031,2470.03,2020-5-24T13:50:40Z
2020-05-24T11:53:00Z,42.805,6.029,13.3014,4.60044,2470.03,2020-5-24T13:53:43Z
2020-05-24T11:56:04Z,42.805,6.029,13.3020,4.60078,2470.03,2020-5-24T13:56:46Z
2020-05-24T11:59:07Z,42.805,6.029,13.3021,4.60054,2470.03,2020-5-24T13:59:50Z
2020-05-24T12:02:10Z,42.805,6.029,13.2992,4.60060,2469.984,2020-5-24T14:02:53Z
2020-05-24T12:05:13Z,42.805,6.029,13.3002,4.60045,2470.007,2020-5-24T14:05:56Z
2020-05-24T12:08:17Z,42.805,6.029,13.3010,4.60049,2469.993,2020-5-24T14:08:59Z
2020-05-24T12:11:20Z,42.805,6.029,13.2998,4.60068,2469.993,2020-5-24T14:12:03Z
2020-05-24T12:14:23Z,42.805,6.029,13.3026,4.60049,2470.007,2020-5-24T14:15:06Z
2020-05-24T12:17:26Z,42.805,6.029,13.3012,4.60063,2469.993,2020-5-24T14:18:09Z
2020-05-24T12:20:30Z,42.805,6.029,13.2989,4.60024,2469.984,2020-5-24T14:21:12Z
2020-05-24T12:23:33Z,42.805,6.029,13.2997,4.60021,2470.007,2020-5-24T14:24:15Z
2020-05-24T12:26:36Z,42.805,6.029,13.3015,4.60045,2470.03,2020-5-24T14:27:19Z
2020-05-24T12:29:39Z,42.805,6.029,13.3015,4.60036,2470.007,2020-5-24T14:30:22Z
2020-05-24T12:32:43Z,42.805,6.029,13.3031,4.60006,2469.993,2020-5-24T14:33:25Z
2020-05-24T12:35:46Z,42.805,6.029,13.2995,4.60036,2469.993,2020-5-24T14:36:29Z
2020-05-24T12:38:49Z,42.805,6.029,13.3051,4.60045,2469.993,2020-5-24T14:39:32Z
2020-05-24T12:41:52Z,42.805,6.029,13.3040,4.60046,2469.97,2020-5-24T14:42:35Z
2020-05-24T12:44:56Z,42.805,6.029,13.3038,4.60026,2469.97,2020-5-24T14:45:38Z
2020-05-24T12:47:59Z,42.805,6.029,13.3041,4.60044,2470.007,2020-5-24T14:48:42Z
2020-05-24T12:51:02Z,42.805,6.029,13.3004,4.60052,2469.984,2020-5-24T14:51:45Z
2020-05-24T12:54:05Z,42.805,6.029,13.3023,4.60033,2469.993,2020-5-24T14:54:48Z
2020-05-24T12:57:09Z,42.805,6.029,13.3031,4.60017,2470.007,2020-5-24T14:57:51Z
2020-05-24T13:00:12Z,42.805,6.029,13.3014,4.60036,2469.947,2020-5-24T15:00:55Z
2020-05-24T13:03:15Z,42.805,6.029,13.3003,4.60062,2470.017,2020-5-24T15:03:58Z
2020-05-24T13:06:18Z,42.805,6.029,13.3015,4.60059,2469.993,2020-5-24T15:07:01Z
2020-05-24T13:09:22Z,42.805,6.029,13.2985,4.60014,2469.97,2020-5-24T15:10:04Z
2020-05-24T13:12:25Z,42.805,6.029,13.2998,4.60033,2469.97,2020-5-24T15:13:07Z
2020-05-24T13:15:28Z,42.805,6.029,13.2982,4.60068,2469.947,2020-5-24T15:16:11Z
2020-05-24T13:18:31Z,42.805,6.029,13.3000,4.60054,2470.007,2020-5-24T15:19:14Z
2020-05-24T13:21:35Z,42.805,6.029,13.3009,4.60023,2469.984,2020-5-24T15:22:17Z
2020-05-24T13:24:38Z,42.805,6.029,13.2986,4.60066,2470.007,2020-5-24T15:25:21Z
2020-05-24T13:27:41Z,42.805,6.029,13.3000,4.60032,2469.96,2020-5-24T15:28:24Z
2020-05-24T13:30:44Z,42.805,6.029,13.3004,4.60031,2469.984,2020-5-24T15:31:27Z
2020-05-24T13:33:48Z,42.805,6.029,13.2987,4.60020,2470.007,2020-5-24T15:34:30Z
2020-05-24T13:36:51Z,42.805,6.029,13.3005,4.60030,2469.947,2020-5-24T15:37:33Z
2020-05-24T13:39:54Z,42.805,6.029,13.3026,4.60038,2469.937,2020-5-24T15:40:37Z
2020-05-24T13:42:57Z,42.805,6.029,13.3036,4.60011,2469.96,2020-5-24T15:43:40Z
2020-05-24T13:46:01Z,42.805,6.029,13.3053,4.60019,2469.96,2020-5-24T15:46:43Z
2020-05-24T13:49:04Z,42.805,6.029,13.3052,4.60033,2469.947,2020-5-24T15:49:47Z
2020-05-24T13:52:07Z,42.805,6.029,13.3035,4.60007,2469.937,2020-5-24T15:52:50Z
2020-05-24T13:55:10Z,42.805,6.029,13.3031,4.60009,2469.96,2020-5-24T15:55:53Z
2020-05-24T13:58:14Z,42.805,6.029,13.3001,4.60010,2469.97,2020-5-24T15:58:56Z
2020-05-24T14:01:17Z,42.805,6.029,13.3002,4.60001,2469.937,2020-5-24T16:02:00Z
2020-05-24T14:04:20Z,42.805,6.029,13.3011,4.60005,2469.96,2020-5-24T16:05:03Z
2020-05-24T14:07:23Z,42.805,6.029,13.3027,4.59998,2469.96,2020-5-24T16:08:06Z
2020-05-24T14:10:27Z,42.805,6.029,13.3019,4.60020,2469.96,2020-5-24T16:11:09Z
2020-05-24T14:13:30Z,42.805,6.029,13.3038,4.60020,2469.97,2020-5-24T16:14:13Z
2020-05-24T14:16:33Z,42.805,6.029,13.3024,4.59993,2469.947,2020-5-24T16:17:16Z
2020-05-24T14:19:37Z,42.805,6.029,13.3063,4.59989,2469.937,2020-5-24T16:20:19Z
2020-05-24T14:22:40Z,42.805,6.029,13.3015,4.60010,2469.947,2020-5-24T16:23:23Z
2020-05-24T14:25:43Z,42.805,6.029,13.3008,4.60021,2469.984,2020-5-24T16:26:26Z
2020-05-24T14:28:46Z,42.805,6.029,13.3019,4.60028,2469.947,2020-5-24T16:29:29Z
2020-05-24T14:31:50Z,42.805,6.029,13.3026,4.60052,2469.947,2020-5-24T16:32:32Z
2020-05-24T14:34:53Z,42.805,6.029,13.3039,4.60014,2469.947,2020-5-24T16:35:36Z
2020-05-24T14:37:56Z,42.805,6.029,13.3027,4.60016,2469.937,2020-5-24T16:38:39Z
2020-05-24T14:40:59Z,42.805,6.029,13.3028,4.60060,2469.9,2020-5-24T16:41:42Z
2020-05-24T14:44:03Z,42.805,6.029,13.3014,4.60027,2469.937,2020-5-24T16:44:45Z
2020-05-24T14:47:06Z,42.805,6.029,13.3024,4.60014,2469.937,2020-5-24T16:47:49Z
2020-05-24T14:50:09Z,42.805,6.029,13.3013,4.60039,2469.923,2020-5-24T16:50:52Z
2020-05-24T14:53:12Z,42.805,6.029,13.2993,4.60042,2469.947,2020-5-24T16:53:55Z
2020-05-24T14:56:16Z,42.805,6.029,13.3019,4.60037,2469.96,2020-5-24T16:56:58Z
2020-05-24T14:59:19Z,42.805,6.029,13.2988,4.60034,2469.937,2020-5-24T17:00:02Z
2020-05-24T15:02:22Z,42.805,6.029,13.2984,4.60061,2469.984,2020-5-24T17:03:05Z
2020-05-24T15:05:25Z,42.805,6.029,13.2996,4.60092,2469.937,2020-5-24T17:06:08Z
2020-05-24T15:08:29Z,42.805,6.029,13.3009,4.60041,2469.96,2020-5-24T17:09:11Z
2020-05-24T15:11:32Z,42.805,6.029,13.3020,4.60021,2469.947,2020-5-24T17:12:14Z
2020-05-24T15:14:35Z,42.805,6.029,13.3027,4.60032,2469.97,2020-5-24T17:15:18Z